Regional Weather Roundup
Issued by NWS

Home | Current Version | Previous Version | Text Only | Print | Product List | Glossary On
Versions: 1 2 3 4 5 6 7 8 9 10 11 12 13 14 15 16 17 18 19 20 21 22 23 24 25 26 27 28 29 30 31 32 33 34 35 36 37 38 39 40 41 42 43 44 45 46 47 48 49 50
000
ASUS42 KFFC 211303
RWRGA
WEATHER ROUNDUP FOR GEORGIA
NATIONAL WEATHER SERVICE PEACHTREE CITY GA
900 AM EDT TUE OCT 21 2014

NOTE: "FAIR" INDICATES FEW OR NO CLOUDS BELOW 12,000 FEET WITH NO
SIGNIFICANT WEATHER AND/OR OBSTRUCTIONS TO VISIBILITY.

* = USE WITH CAUTION. THE STATIONS MARKED WITH AN ASTERISK MAY NOT
REPORT WEATHER SUCH AS PRECIPITATION, FOG, OR THUNDER AND ARE NOT
QUALITY CONTROLLED BY NWS.

THE REMARK "TC" DENOTES TEMPERATURE READING IN DEGREES CELSIUS.

GAZ001>058-211400-
NORTH GEORGIA

CITY           SKY/WX    TMP DP  RH WIND       PRES   REMARKS
ATLANTA        SUNNY     56  49  77 NW6       30.03R
ATHENS         SUNNY     52  50  93 CALM      30.01R
CHAMBLEE       SUNNY     55  51  86 CALM      30.03R
PEACHTREE CITY SUNNY     49  48  97 CALM      30.04R FOG
ROME           FOG       48  48 100 CALM      30.04R VSB<1/4
WEST ATLANTA   SUNNY     53  50  89 CALM      30.03R
GAINESVILLE    SUNNY     55  50  83 W7        30.03R
CARTERSVILLE   SUNNY     48  46  93 CALM      30.05R


CITY           SKY/WX    TMP DP  RH WIND       PRES   REMARKS
DALTON*        FOG       46  46 100 CALM      30.04R VSB 1/4
MARIETTA       SUNNY     55  53  93 W7        30.03R
KENNESAW*      SUNNY     54  48  82 W3        30.04R
$$

GAZ059>098-102>109-211400-
CENTRAL GEORGIA

CITY           SKY/WX    TMP DP  RH WIND       PRES   REMARKS
AUGUSTA-BUSH   SUNNY     52  50  93 CALM      29.99R
AUGUSTA-DANIEL SUNNY     61  52  72 NW8       30.00R
COLUMBUS       SUNNY     55  52  89 CALM      30.04R
MACON          SUNNY     52  51  97 W3        30.02R
ROBINS AFB     SUNNY     54  51  90 N3        30.02R


CITY           SKY/WX    TMP DP  RH WIND       PRES   REMARKS
LAGRANGE*      CLOUDY    52  51  99 CALM      30.05R
SYLVANIA*      SUNNY     60  59  96 CALM      30.00R
MILLEDGEVILLE* SUNNY     54  54 100 W5        30.02R
$$

GAZ099>101-110>166-211400-
SOUTH GEORGIA

CITY           SKY/WX    TMP DP  RH WIND       PRES   REMARKS
SAVANNAH       SUNNY     65  58  78 CALM      29.99R
VALDOSTA       SUNNY     63  57  81 N5        30.00R
ALMA           SUNNY     62  57  83 N3        30.00R
ST SIMONS      SUNNY     66  64  93 N7        29.98R
FT STEWART     SUNNY     65  58  79 CALM      29.98R
ALBANY         SUNNY     58  54  86 CALM      30.04R
HUNTER AFB     SUNNY     65  64  99 NW3       29.97R
MOODY AFB      SUNNY     63  57  81 N6        30.00R
BRUNSWICK      SUNNY     66  63  88 N5        30.00R


CITY           SKY/WX    TMP DP  RH WIND       PRES   REMARKS
BAINBRIDGE*    SUNNY     61  59  94 CALM      30.02R
MOULTRIE*      SUNNY     59  59 100 CALM      30.02R
VIDALIA*       SUNNY     61  57  88 CALM      30.01R
WAYCROSS*      SUNNY     65  62  88 CALM      30.01R
DOUGLAS*       SUNNY     64  59  82 CALM      30.02R
$$


USA.gov is the U.S. government's official web portal to all federal, state and local government web resources and services.